Weather in Novozavidovsky

Russia / Tver Oblast     56°33′11″N   36°26′06″E
temp.,
°C
wind,
m/s
gust,
m/s
humid.,
%
clouds,
%
prec.,
mm/h
press.,
hPa
HPBL,
m
5 march, fri
fri500:00−6wnw249330 0.0 1002105
03:00−6wnw259654 0.0 1004207
06:00−7wnw389498 0.3 1005379
09:00−6wnw388999 0.3 1007545
12:00−4wnw4771100 0.1 10081132
15:00−3wnw4760100 0.4 10101580
18:00−6wnw2378100 0.2 101231
21:00−8nw128672 0.2 101421
6 march, sat
sat600:00−9wnw12900 0.0 101421
03:00−10w22930 0.0 101635
06:00−10wnw229629 0.0 101657
09:00−8nw269044 0.0 1017351
12:00−6nw347499 0.1 1017883
15:00−5nw3565100 0.2 10161183
18:00−7wsw2281100 0.1 101526
21:00−9sw388977 0.1 1014206
7 march, sun
sun700:00−7sw51381100 0.0 1010575
03:00−6sw71492100 0.3 1005871
06:00−5sw81590100 0.6 10001036
09:00−4sw81591100 1.9 9941093
12:00−2w81393100 1.6 9921100
15:00−3wnw5864100 2.2 9941398
18:00−7w397180 0.6 996293
21:00−7ssw3118990 0.7 995617
8 march, mon
mon800:00−6w31093100 0.4 992456
03:00−7w4985100 0.4 994593
06:00−9n61284100 1.4 996783
09:00−10nw6127885 1.4 999758
12:00−8nw61082100 0.1 10011007
15:00−7nw6976100 0.3 10041185
18:00−9nw4985100 0.1 1006781
21:00−11nw3994100 0.2 1009554
9 march, tue
tue900:00−13nnw3893100 0.1 1011401
03:00−16nnw379599 0.1 1014318
06:00−18nnw379699 0.0 1016301
09:00−18nnw368995 0.0 1018361
12:00−14nnw368088 0.0 1019537
15:00−12nnw367257 0.0 1019770
18:00−14nnw228530 0.0 102023
21:00−16n119038 0.0 102120